GFSFLT2_500_rhum_240.txt.gz
RH
33 34 43 49 57 51 57 54 53 56 55 65 71 84 65 57 66 58 64 78 57 33 37 28 23 22 18 20 21 14 11 12
38 38 44 51 55 57 62 57 55 58 52 56 68 89 70 60 71 65 60 85 71 41 34 38 26 22 22 17 17 19 16 10
42 45 45 54 61 55 66 61 58 63 53 49 60 85 70 63 64 77 77 94 69 51 35 40 34 23 23 21 16 15 17 17
48 56 48 59 66 55 68 67 57 64 57 44 47 76 67 68 66 83 91 92 94 66 44 35 44 29 23 21 18 15 14 14
58 70 59 61 71 63 74 64 61 60 56 38 40 69 64 66 55 80 91 92 96 70 54 36 46 41 27 22 19 18 15 14
68 84 80 66 71 83 80 66 58 69 55 33 38 64 65 59 52 93 96 96 98 81 67 43 37 50 40 25 21 18 16 15
70 89 89 79 69 88 86 79 62 68 44 34 43 54 74 72 68 91 97 95 95 94 78 60 37 49 52 36 26 21 19 16
74 81 90 78 75 82 85 93 69 72 41 35 55 65 91 97 94 88 97 96 98 83 97 67 50 46 53 50 35 25 21 19
74 86 92 90 70 87 88 89 88 80 50 39 70 89 100 97 98 97 96 98 95 98 90 94 60 52 59 56 53 34 26 20
74 79 92 92 81 89 85 85 95 82 87 47 40 63 100 100 96 89 95 98 98 97 91 90 95 63 61 67 66 57 31 24
92 100 97 94 84 82 82 86 95 93 86 93 48 43 52 95 87 98 81 82 98 99 96 93 95 88 68 70 65 62 43 28
97 79 76 97 90 88 79 81 96 94 85 83 90 60 47 49 67 78 81 70 69 99 90 96 96 88 96 75 68 50 52 38
69 82 78 97 88 75 74 66 87 96 98 88 78 82 69 58 54 51 60 67 59 96 98 93 96 95 92 87 71 56 42 32
49 58 65 80 82 74 73 77 72 98 97 99 93 83 92 82 66 63 55 57 66 90 94 96 98 97 95 98 90 69 48 40
44 52 61 78 86 79 72 75 67 88 88 85 87 83 81 80 82 80 75 81 88 96 97 96 98 96 96 94 97 93 74 57
42 64 67 86 90 79 68 67 60 76 90 87 84 90 79 71 72 82 88 95 94 95 96 97 96 97 96 87 85 94 84 77
24 57 66 89 92 68 61 58 58 87 94 88 90 95 88 86 81 79 95 95 96 96 96 95 96 96 94 98 86 95 89 91
4 36 61 91 92 64 62 59 57 82 86 75 72 76 73 79 85 93 83 96 94 95 96 96 96 95 95 94 91 93 100 100
7 43 69 92 97 76 68 79 74 68 79 80 76 71 69 70 80 83 88 89 97 94 97 95 95 95 95 96 97 89 96 98
6 20 80 90 88 80 72 85 74 67 72 77 72 68 74 64 83 85 87 96 98 95 95 97 96 94 94 95 95 91 96 98

GFSFLT2_500_rhum_243.txt.gz
RH
24 31 36 42 38 42 42 50 54 53 53 63 73 74 80 56 57 58 62 63 42 34 37 24 22 21 18 19 14 12 12 14
20 25 30 38 41 45 48 49 57 57 56 57 76 73 89 68 58 66 56 80 62 36 38 36 24 20 18 18 19 14 10 10
21 20 23 33 46 49 55 48 60 59 57 58 60 66 87 81 57 70 65 70 72 44 34 45 30 24 19 16 16 18 17 11
32 20 21 28 45 54 57 54 57 57 58 62 54 56 82 91 65 66 71 72 78 54 40 41 46 27 23 20 16 14 16 17
38 23 24 26 40 66 59 62 54 58 62 61 65 50 65 88 73 64 77 76 93 73 47 35 50 38 26 23 20 15 13 13
40 37 31 30 33 80 67 66 58 62 67 62 68 49 56 80 82 64 79 88 96 89 58 45 39 50 35 26 23 19 14 13
52 47 45 39 38 83 72 69 66 62 74 73 84 46 73 81 95 75 88 88 94 100 64 52 37 48 46 31 25 22 17 15
56 48 60 52 50 81 77 69 74 62 68 69 86 49 77 81 97 81 90 95 86 92 89 66 48 38 49 44 29 25 22 18
56 56 59 66 62 68 84 68 78 68 70 74 88 55 81 77 97 90 99 84 95 97 94 85 69 45 42 46 44 30 24 23
81 67 59 68 70 76 85 70 79 75 83 81 82 58 65 82 97 96 96 99 96 83 98 91 97 62 47 52 49 52 35 24
65 87 46 72 77 68 91 84 88 81 81 91 74 44 58 95 95 97 98 100 83 88 88 88 94 93 65 55 54 49 47 29
27 74 55 56 76 77 91 81 80 85 90 100 88 57 46 80 84 89 92 94 95 94 92 94 88 73 87 78 58 55 52 40
6 20 80 34 67 72 70 79 66 83 86 100 96 92 69 63 95 74 76 97 84 86 76 96 87 88 70 88 80 76 58 46
5 8 50 24 93 84 84 86 71 82 80 96 92 92 90 44 40 73 97 93 95 70 84 98 80 96 76 96 92 85 79 52
4 5 11 44 46 89 90 96 86 82 77 82 99 84 83 87 46 41 43 89 85 90 76 68 77 86 97 96 94 81 81 78
4 4 4 34 26 84 84 99 87 64 70 82 76 99 97 88 90 75 48 49 60 65 86 82 73 64 88 95 95 92 82 84
4 4 6 6 44 49 78 92 94 83 80 88 71 92 94 86 84 82 82 68 57 56 65 73 88 80 91 96 96 86 86 88
2 8 5 4 15 20 68 71 90 94 84 90 75 71 89 88 84 80 85 84 81 92 94 96 94 94 96 96 95 96 88 80
3 10 5 5 6 11 88 73 85 93 99 89 84 73 82 88 72 82 88 86 92 95 93 95 92 95 97 95 97 93 93 78
42 30 20 15 10 15 67 74 97 96 97 87 73 78 99 85 83 92 88 88 95 94 93 92 92 95 93 96 96 92 89 84

GFSFLT2_500_rhum_246.txt.gz
RH
34 43 22 23 26 32 40 41 41 45 51 51 54 62 64 67 50 53 56 61 37 35 21 20 21 17 13 14 16 15 27 16
39 32 46 46 22 25 35 42 43 45 53 54 52 60 64 72 58 56 54 69 50 36 34 19 20 17 18 14 14 14 15 14
42 31 40 72 38 22 27 43 49 45 50 55 53 54 62 71 68 54 53 72 71 44 34 27 21 18 16 17 15 12 12 10
63 57 46 44 67 23 24 44 55 51 49 60 59 55 55 69 81 60 57 63 75 54 36 36 19 21 17 16 16 16 13 10
45 48 59 50 52 26 24 36 55 59 52 54 64 60 59 58 74 73 57 64 71 63 45 36 33 22 21 17 14 14 15 15
60 63 61 56 47 40 36 30 46 65 58 56 56 62 63 56 70 85 65 66 74 85 60 40 39 29 24 21 15 13 13 13
59 57 70 66 46 48 46 44 37 63 65 57 53 68 60 64 65 80 79 70 74 90 81 51 42 43 25 25 20 15 15 13
59 42 61 71 64 62 50 53 47 50 65 58 51 70 66 70 70 86 93 72 75 82 93 63 57 40 40 24 23 20 16 15
49 32 31 65 68 60 50 51 57 51 64 61 52 63 74 82 85 89 97 79 85 82 87 92 55 52 41 40 22 20 20 18
14 56 18 34 68 60 54 53 62 60 64 65 57 54 78 87 90 83 96 85 92 89 87 99 72 61 56 45 40 22 19 19
8 26 27 11 58 60 62 58 66 71 71 69 66 56 82 91 87 84 92 95 93 76 94 92 92 83 67 48 47 41 30 20
14 22 94 12 10 62 65 67 65 85 84 77 69 59 77 91 90 87 91 87 73 65 77 94 84 82 93 72 48 47 43 28
29 11 75 92 6 36 77 62 63 79 85 82 75 65 73 84 86 82 84 93 72 60 62 92 86 76 68 68 73 78 60 38
37 55 76 67 48 15 67 98 74 80 78 100 92 75 71 89 76 79 88 95 96 89 64 71 84 93 83 78 62 59 79 61
3 64 71 56 54 13 66 98 96 90 87 90 98 86 76 98 74 77 86 87 97 93 83 95 78 82 58 74 77 77 88 95
8 92 69 95 86 21 12 78 89 88 88 99 94 87 85 80 86 82 94 90 97 66 90 85 60 55 62 87 65 96 81 92
42 71 70 30 43 98 4 41 85 97 91 78 96 89 84 72 81 85 78 66 88 83 98 78 78 76 57 64 65 63 60 95
79 70 57 97 37 53 16 7 57 92 81 96 80 85 73 74 78 91 80 81 42 60 60 61 58 62 63 53 50 50 50 95
73 94 74 63 71 42 58 21 31 64 82 79 98 96 73 79 76 90 75 78 80 49 59 62 73 83 81 74 62 54 71 90
100 97 80 60 53 44 51 36 25 70 79 78 83 91 95 74 75 82 89 77 75 80 74 75 85 90 99 94 90 94 94 95

GFSFLT2_500_rhum_252.txt.gz
RH
23 27 15 19 21 44 42 73 36 51 31 27 44 44 46 48 54 61 52 42 45 46 32 16 16 14 17 18 18 43 26 27
54 16 12 17 20 41 61 72 49 72 71 27 40 45 50 51 52 60 62 45 45 50 45 21 17 14 16 18 20 26 39 33
56 34 12 14 17 48 51 62 36 40 81 64 26 48 48 53 57 58 68 52 45 50 48 39 18 15 13 17 27 29 27 41
98 83 15 14 21 26 54 77 70 49 80 59 31 37 50 55 59 61 66 63 46 49 57 52 18 16 14 15 17 21 20 22
96 62 28 26 30 35 49 74 46 55 71 54 33 27 48 53 62 60 65 72 54 50 58 59 33 17 17 14 15 18 23 11
92 76 53 50 54 63 76 79 59 64 84 39 34 31 36 55 64 62 69 79 68 55 57 61 53 20 15 16 14 14 22 13
65 77 85 63 89 94 85 75 61 70 93 47 35 35 35 55 63 65 67 80 84 62 59 59 63 42 16 16 16 14 12 11
35 46 64 87 86 98 92 89 54 71 84 50 35 36 39 46 63 67 65 71 100 77 63 60 66 57 41 16 14 15 14 14
24 24 37 57 56 70 95 97 93 72 84 58 36 36 41 44 62 67 68 66 90 96 69 61 59 69 53 21 14 14 14 13
14 13 13 14 52 57 56 81 80 75 71 69 42 38 43 45 56 66 72 68 70 99 86 69 58 65 71 49 18 12 12 12
11 8 8 8 8 18 65 38 62 78 76 64 59 46 44 46 55 69 72 72 66 86 96 78 61 62 69 62 30 16 12 11
5 4 4 5 6 6 20 94 63 72 71 62 64 58 48 47 54 66 71 73 68 66 86 87 66 64 70 71 53 34 13 14
4 7 3 3 5 5 6 45 97 92 83 75 63 68 54 48 53 63 71 66 70 67 76 95 74 63 59 62 62 55 40 12
20 18 22 16 7 6 4 10 62 99 93 96 85 72 51 49 54 63 70 75 71 70 76 88 85 62 56 58 62 58 62 34
12 48 90 100 58 21 8 5 10 62 98 94 96 79 65 52 55 64 74 78 72 69 74 76 84 64 58 49 49 55 62 58
26 18 80 100 98 88 47 11 4 31 69 97 99 98 87 69 58 68 78 82 80 74 74 77 83 64 60 53 51 64 74 66
26 33 28 35 95 90 90 79 20 14 86 92 92 87 96 73 79 70 74 79 80 71 70 76 84 87 76 64 51 64 72 64
29 34 34 35 52 67 91 72 86 12 72 60 82 92 97 92 76 76 82 86 85 77 66 83 78 76 77 66 53 52 71 73
37 43 41 51 49 47 56 82 99 39 73 71 97 95 79 93 78 58 72 81 81 81 68 86 73 69 72 69 66 64 69 73
47 40 53 49 72 57 38 47 98 91 69 67 46 96 96 96 96 78 59 98 90 72 67 80 81 71 72 67 88 80 79 75

GFSFLT2_500_rhum_255.txt.gz
RH
62 44 25 26 46 26 20 24 33 44 66 51 59 30 45 55 55 54 57 56 48 46 45 25 16 14 17 18 19 25 21 29
54 55 40 44 29 24 18 22 50 43 68 50 76 59 36 52 60 58 58 60 55 48 51 39 22 15 15 18 19 40 21 42
60 66 54 55 66 19 18 20 55 62 53 83 78 78 37 49 61 61 59 62 64 50 52 49 40 16 14 18 20 29 42 40
79 70 80 83 59 18 17 17 46 62 38 73 70 80 44 42 59 62 62 61 71 57 52 54 51 18 14 16 21 28 28 29
69 92 97 78 100 79 34 16 27 44 62 66 61 86 50 36 57 64 64 65 72 69 55 59 59 20 16 14 17 24 29 29
83 92 96 97 93 95 48 30 22 36 66 68 52 82 57 36 52 66 69 71 77 82 60 58 62 37 17 16 15 20 18 20
77 77 76 98 97 94 71 38 37 37 62 69 44 75 62 44 45 65 71 71 81 92 76 60 66 60 21 16 14 14 20 17
95 83 68 79 100 97 95 93 65 71 85 88 54 66 71 48 45 56 72 73 80 92 93 67 65 70 40 17 16 12 15 14
64 65 53 50 52 92 98 95 97 76 87 92 78 66 73 48 51 51 70 76 78 83 98 87 63 70 78 27 15 15 12 12
20 19 20 22 30 31 60 97 96 95 90 78 83 68 68 47 49 48 63 76 77 86 87 100 79 68 74 68 23 15 15 14
20 19 18 16 16 18 24 50 90 98 96 95 73 84 78 58 40 48 52 74 78 80 78 96 97 72 73 89 52 21 15 15
17 12 17 15 11 11 12 17 42 78 91 89 97 71 81 72 39 41 49 67 77 77 78 76 100 90 76 84 79 54 17 13
10 13 6 6 7 7 8 9 14 39 78 88 85 86 77 81 45 42 49 51 73 77 79 77 84 92 86 76 78 69 50 15
4 3 6 6 3 5 5 6 7 12 48 75 90 87 88 80 64 43 47 49 65 83 77 79 72 81 92 77 71 70 66 35
4 6 6 4 4 4 4 4 6 7 11 55 64 95 86 85 78 64 42 47 57 84 83 79 74 69 86 78 67 65 69 56
25 27 22 14 7 4 4 5 5 14 13 14 50 72 97 80 88 72 53 50 54 72 84 80 80 69 72 89 70 69 82 78
32 27 20 19 22 15 6 5 4 11 11 15 33 62 97 93 96 69 70 50 50 64 84 79 84 79 68 92 83 71 68 74
49 40 27 28 20 28 22 13 4 4 24 18 25 64 72 98 82 85 84 62 52 60 76 81 84 86 74 80 92 68 70 70
43 53 54 35 27 20 21 24 16 5 9 22 47 44 88 95 82 95 97 83 56 65 68 82 78 80 81 81 90 75 80 85
32 33 34 37 38 32 27 32 22 20 17 11 55 39 53 93 96 96 96 98 71 59 67 75 80 78 81 85 92 84 80 94